GFSGBSN_con_3kmhel_042.txt.gz
Helicity
118 120 114 126 134 72 77 81 79 71 66 57 57 55 52 37 37 41 28 30 23 24 33 28 29 15 -1 9 -3 69 33 55 31 22 11 23 4 -1 4 2 2 1 48 23 76 49 63
58 99 103 112 120 117 74 80 83 76 66 60 56 58 53 42 39 37 28 27 22 23 28 31 28 7 -3 13 -6 60 51 27 25 27 18 41 4 14 35 53 20 -15 27 32 36 38 66
46 54 65 101 115 129 90 85 93 83 78 63 60 58 52 48 41 40 30 32 29 29 34 32 23 4 -16 16 -32 32 29 32 37 77 51 30 25 24 11 39 35 36 50 70 46 19 104
51 47 52 55 87 124 115 92 88 90 84 73 63 60 58 52 43 36 32 32 34 33 34 28 13 -13 4 -14 13 16 13 41 60 18 31 42 56 16 53 71 40 43 9 -4 16 89 -9
57 60 55 55 47 72 103 108 86 90 88 79 66 62 60 50 43 36 33 26 32 31 31 14 17 -3 30 14 3 1 11 27 35 20 17 12 16 48 60 101 83 42 3 20 61 11 10
51 54 61 55 56 46 82 88 85 89 89 85 69 60 60 46 41 40 33 29 36 29 29 20 2 -4 -10 1 20 28 15 -5 9 22 25 17 17 47 56 58 20 32 66 54 -13 42 -16
74 47 54 55 49 53 54 84 71 82 86 85 69 60 61 49 44 41 37 27 61 57 29 27 46 1 -4 9 24 -24 -1 11 12 26 44 23 3 40 28 -3 31 47 14 35 -12 59 -2
108 92 64 53 49 52 55 74 68 80 98 87 76 63 60 53 47 46 41 40 112 103 19 71 -13 -41 -24 41 33 -18 15 -6 13 32 -19 28 -18 36 50 43 62 55 -26 75 64 40 18
160 132 106 82 76 63 49 69 85 65 116 99 81 67 65 57 53 53 38 9 40 63 44 -6 61 2 -4 11 -2 4 7 10 10 -3 95 115 12 90 15 33 38 37 62 82 103 1 5
205 197 150 123 93 82 65 71 101 76 106 129 82 67 69 80 62 35 46 27 -36 14 69 23 55 3 -20 -26 -8 48 22 17 68 4 54 -17 54 86 53 11 20 35 86 -22 -18 25 -12
205 206 195 144 129 102 112 96 106 102 82 142 86 75 75 59 137 45 157 6 8 10 151 54 86 16 12 5 15 3 41 29 9 21 7 -15 143 50 76 89 35 2 7 43 17 17 43
212 183 207 191 145 140 130 109 117 131 102 152 94 86 78 79 36 48 177 104 25 104 144 51 82 30 6 4 -0 10 27 20 26 26 19 6 77 113 64 62 35 -25 -20 23 1 26 112
258 234 253 210 191 173 154 117 122 148 121 155 105 95 95 73 96 48 67 116 153 193 -15 63 118 40 5 15 -8 -6 55 7 48 21 6 23 70 9 27 22 6 -8 -3 14 50 -61 9
324 270 256 258 225 190 163 135 124 145 135 159 105 123 75 61 151 187 70 122 165 77 -16 10 39 26 11 -5 8 5 13 -1 2 30 1 -18 7 -4 28 -2 71 52 6 -25 31 13 23
280 277 258 250 284 214 199 172 133 154 141 175 139 144 98 63 67 146 127 154 199 2 39 1 17 22 11 -18 10 18 2 -2 -3 12 18 44 72 154 77 23 22 39 20 6 1 17 -12
140 188 186 230 278 271 190 170 142 156 169 226 268 177 81 81 81 160 168 73 58 -31 -28 38 9 6 5 -20 37 10 19 29 11 -7 98 72 -13 43 -38 18 26 25 35 12 2 18 11
18 49 117 177 260 246 216 169 151 151 182 204 218 269 67 90 124 229 160 144 -13 -35 -37 -24 -7 1 -17 6 39 -19 13 -4 5 53 73 -15 224 -33 -5 -9 13 13 -20 19 34 34 42
48 40 54 45 173 201 190 178 145 177 140 165 367 296 137 228 256 201 189 118 -4 3 -19 -14 -44 -38 -17 -18 29 -10 11 12 53 68 15 26 25 31 -19 38 78 76 68 -0 63 36 74
57 80 74 58 110 140 101 148 153 194 93 255 468 288 151 168 245 207 186 91 -9 -11 -44 31 -22 -77 -12 -43 -6 21 16 124 165 17 53 42 59 44 42 15 5 26 6 46 61 108 70
57 87 70 -11 91 212 79 79 148 149 8 252 450 449 281 167 176 171 172 97 33 -15 -30 38 -9 -39 -21 -32 50 51 39 103 99 112 91 81 63 32 22 9 49 28 2 11 33 113 59
37 68 46 -98 72 150 106 88 108 103 -17 202 431 378 331 234 197 198 137 119 88 75 -0 -18 5 -15 7 45 40 51 30 89 68 105 96 101 42 29 27 36 43 67 83 24 26 21 43
37 68 38 -39 84 100 127 121 101 22 29 179 421 414 236 176 183 255 172 55 61 34 32 -11 16 -19 37 40 39 75 24 89 50 66 83 98 78 94 100 97 72 31 53 62 25 18 14
42 30 42 58 78 110 99 104 63 33 95 161 209 260 162 214 130 265 166 61 112 35 14 9 19 31 3 30 75 152 72 80 22 65 54 70 94 114 83 107 107 50 25 -0 1 9 15
11 26 31 18 56 88 82 94 64 73 44 151 217 274 235 160 170 186 170 66 69 17 63 61 44 -23 102 142 168 154 169 111 158 142 48 79 56 122 84 81 55 8 87 71 77 56 74
-30 -19 35 38 51 69 85 94 34 -33 -8 161 101 145 214 180 180 124 113 45 28 51 201 42 167 122 83 154 145 141 135 146 123 116 115 88 117 117 98 72 43 53 74 76 64 120 203
-36 -31 -7 45 68 75 69 69 -1 -58 13 56 -172 84 223 135 134 131 76 33 160 108 176 90 233 188 182 209 152 105 87 68 69 71 128 137 129 103 91 75 32 71 91 89 69 85 203
-11 -6 33 52 66 62 66 10 -21 -40 78 -224 -278 82 168 153 97 86 155 123 148 242 135 187 299 261 245 167 112 92 81 59 92 68 56 107 135 103 113 83 67 143 114 66 74 166 161
-10 -5 21 35 47 25 11 -47 114 70 -65 -188 -96 78 39 168 126 77 99 95 134 227 106 162 285 231 177 131 96 91 92 62 77 37 46 54 71 77 117 88 41 121 97 117 187 149 125
-30 -16 -4 -0 12 24 4 93 79 -164 -110 -95 -56 180 38 75 303 292 217 290 298 178 76 91 107 115 100 102 96 101 88 105 106 68 69 42 49 54 60 73 108 144 186 177 192 170 177

GFSGBSN_con_3kmhel_045.txt.gz
Helicity
55 75 100 117 116 109 100 86 86 78 69 58 52 55 49 44 39 36 32 32 30 29 24 20 20 20 30 39 29 27 78 49 59 31 8 -1 29 22 53 48 46 8 39 -31 44 21 22
49 44 48 59 95 120 115 96 80 84 79 64 54 57 51 45 38 37 33 31 29 31 26 21 32 18 36 47 13 80 64 36 37 25 3 60 98 38 31 12 19 13 6 14 42 52 73
44 43 44 51 46 70 120 121 100 90 91 76 64 59 56 52 44 37 36 30 26 24 26 27 37 26 30 58 -7 -31 -14 27 29 52 32 96 72 22 42 51 51 78 67 69 74 78 95
49 50 49 48 47 42 66 80 98 107 92 84 71 65 59 54 47 40 38 30 24 19 23 34 32 28 37 29 30 29 2 6 108 186 110 84 28 27 16 48 85 65 39 32 18 68 73
62 61 58 53 56 52 45 56 63 94 95 94 77 73 65 60 51 45 38 30 20 16 30 32 45 29 15 -47 4 -25 -11 23 120 65 43 11 -4 1 47 53 114 61 29 -1 13 -7 43
76 71 70 69 66 61 51 42 49 75 82 89 93 80 68 58 54 48 43 33 40 41 40 27 24 20 -6 3 9 -3 29 20 10 28 -3 3 2 41 58 68 87 52 29 19 44 -6 126
88 82 72 73 76 75 63 56 47 68 70 83 93 84 69 60 60 49 48 53 95 91 48 63 87 52 1 -4 -3 5 -6 41 4 53 -12 22 38 33 80 26 28 -3 60 33 35 31 64
124 101 91 79 71 70 64 64 66 60 74 65 86 87 69 53 58 43 46 50 48 93 22 72 68 -23 -5 30 -22 2 -46 4 18 -0 18 -6 70 50 11 57 3 12 3 37 98 22 51
135 148 117 105 88 72 69 74 70 69 74 78 97 87 74 53 54 56 67 112 98 81 51 7 63 -30 5 3 -32 -14 -26 8 25 91 -43 10 19 180 1 14 46 42 -8 -19 44 113 43
121 145 166 122 101 86 83 85 89 73 78 86 108 115 83 80 78 71 120 91 49 42 62 39 75 -0 -32 -19 -22 -6 13 25 -15 65 121 -57 -28 33 -4 19 10 -19 -23 65 22 41 26
152 134 145 168 156 106 92 89 91 92 94 86 95 144 104 67 85 95 150 224 37 50 65 20 102 -5 31 19 -7 -37 1 -44 18 -37 -3 -29 -46 12 -13 16 15 -32 39 41 -1 -5 12
149 162 158 158 162 157 117 105 106 108 110 114 112 157 137 102 19 62 166 257 93 128 59 89 88 61 51 -27 -41 -69 -18 37 75 -0 25 -37 18 13 25 1 19 8 22 27 36 7 58
151 176 186 187 158 178 140 121 127 130 126 128 132 176 166 83 60 130 129 127 175 145 65 89 149 85 16 18 -18 -29 12 103 41 41 -2 28 14 58 43 -44 70 76 42 65 76 15 -67
124 190 182 212 174 150 179 145 139 144 147 145 155 184 126 64 99 177 217 187 109 69 2 48 143 55 46 -22 2 -23 6 72 24 25 15 40 30 39 38 -1 30 62 20 49 65 24 65
132 145 200 238 330 187 198 175 166 155 178 166 199 232 222 47 77 162 246 173 139 115 -9 86 92 74 36 -22 -48 17 -53 -20 17 34 9 45 30 79 77 116 41 45 86 47 53 16 49
118 104 156 211 231 243 222 179 180 173 191 202 291 261 232 73 134 190 252 168 256 -35 125 34 35 91 74 2 -54 40 52 -14 16 53 100 103 86 139 40 -14 33 30 -21 20 40 24 7
161 129 97 149 215 240 184 248 152 190 203 211 291 284 184 102 227 230 153 198 154 -49 115 152 45 36 37 20 -24 -15 5 42 36 24 177 167 99 53 87 15 -0 18 38 51 50 67 27
195 156 101 88 132 166 136 238 200 178 217 241 335 311 178 203 366 264 127 254 206 -4 47 126 93 -2 48 -16 -48 68 5 23 5 76 112 28 73 -49 31 88 35 30 21 37 79 40 58
185 140 85 25 19 79 131 173 210 168 213 384 365 363 125 248 275 168 218 160 80 30 161 195 92 22 10 -11 3 -17 27 96 87 139 120 108 70 68 54 33 20 25 46 54 60 125 88
166 141 66 -10 28 50 71 71 120 136 166 344 440 444 301 190 188 157 199 168 85 4 165 207 190 23 33 -16 -15 -4 107 122 235 186 143 102 111 68 43 41 45 33 37 31 42 137 96
-5 57 37 -55 36 58 74 83 70 79 106 291 512 375 382 276 115 198 145 140 97 28 106 88 147 34 40 31 -57 12 94 133 137 151 133 96 66 91 86 68 20 45 80 64 35 11 150
10 -89 -129 17 58 54 85 71 168 76 63 238 506 404 343 275 167 283 235 152 71 34 119 88 103 14 3 12 -12 -12 121 160 120 106 90 122 85 100 86 102 101 59 128 66 67 77 57
-56 -118 -118 6 77 82 36 86 247 79 130 172 363 298 287 280 102 263 196 221 111 76 76 122 75 70 40 -1 51 44 87 115 94 92 91 120 140 158 113 121 101 83 23 56 75 67 51
-17 -14 12 25 80 60 26 146 143 100 137 146 264 430 349 209 174 69 239 234 109 62 147 126 59 74 53 209 283 324 348 320 250 230 68 115 140 147 107 131 124 41 62 64 98 147 166
15 32 55 61 65 4 109 96 129 109 153 67 259 225 298 220 149 101 135 197 95 29 129 65 109 68 172 244 244 226 253 238 171 106 125 162 168 147 130 115 73 37 108 66 91 152 162
27 26 18 12 14 41 74 116 168 138 121 49 139 165 247 259 133 148 95 160 120 99 126 83 173 275 254 182 198 172 168 142 132 179 275 250 157 158 144 122 65 33 77 123 117 139 141
4 -38 -61 -16 29 102 124 92 110 105 72 81 36 167 172 213 226 179 200 150 112 124 210 155 265 344 276 272 241 192 160 111 151 140 147 214 240 188 181 122 85 92 98 85 123 111 163
-23 -77 -42 12 3 58 62 59 44 73 66 36 11 -2 133 196 225 136 103 181 179 185 303 258 326 274 131 243 219 229 162 156 149 131 86 106 137 124 166 133 71 104 140 115 130 237 196
-44 -57 -44 19 13 38 74 74 58 81 68 70 -22 -17 -34 154 177 252 168 221 138 228 344 339 345 345 83 212 223 218 169 182 174 130 83 98 75 71 79 58 79 205 262 288 246 247 214

GFSGBSN_con_3kmhel_048.txt.gz
Helicity
46 48 66 89 112 115 117 112 92 95 92 74 65 59 55 53 53 48 38 39 35 33 32 24 22 31 45 44 65 7 51 56 57 34 9 -3 -6 20 98 87 73 66 95 9 5 115 106
42 46 50 42 47 75 99 115 113 90 92 89 79 68 60 57 54 50 43 41 35 34 33 20 36 36 59 63 34 47 78 26 38 40 11 -7 19 51 115 33 53 41 111 -17 120 83 64
43 42 44 48 44 44 54 92 103 93 88 95 91 78 75 70 60 54 46 44 34 30 32 25 46 40 59 92 22 11 -14 4 -3 38 23 20 45 103 74 55 12 58 29 50 85 144 49
65 52 50 44 49 47 45 47 89 85 76 91 87 80 80 81 76 64 48 42 34 25 29 33 53 57 52 29 47 -5 -14 -46 53 51 41 58 20 46 26 14 47 77 52 40 20 106 54
76 69 61 56 56 53 51 44 39 60 63 81 86 80 83 79 80 68 58 47 33 29 35 45 60 63 30 -56 -21 -10 9 -18 3 107 51 46 -12 1 48 35 72 76 61 33 11 37 7
85 76 68 70 66 60 57 52 54 39 37 70 75 70 74 83 80 69 66 63 46 51 70 59 77 50 4 83 11 -41 -70 -17 -27 22 20 18 16 43 49 33 60 74 36 56 20 3 52
106 98 82 59 69 68 65 61 62 55 46 55 72 62 73 72 72 72 51 54 79 76 68 59 66 26 64 48 -43 -37 -28 -23 1 31 -6 12 23 64 84 103 66 106 52 13 7 -2 6
101 109 114 89 69 66 66 60 70 65 61 60 60 53 66 63 72 63 40 71 51 50 15 -10 41 18 -8 43 -35 -75 -14 -3 17 14 43 5 7 14 81 57 20 -20 11 101 127 54 7
119 113 113 113 91 76 66 70 63 70 69 64 59 52 65 65 79 66 64 97 92 41 49 26 93 30 -11 59 -6 -73 -56 -34 45 50 14 -20 -12 -24 -10 46 -7 -29 -5 58 72 26 75
104 126 128 125 124 97 77 77 85 86 76 75 75 55 84 102 74 59 90 119 93 55 47 31 46 6 18 14 -48 -56 -105 -65 37 33 -1 -5 9 -22 -20 10 -0 50 -16 51 8 42 58
158 158 128 136 151 122 108 94 89 111 102 87 86 63 93 112 80 88 131 179 92 67 42 25 39 27 46 62 -0 -39 -76 -67 9 -7 67 40 3 16 -17 3 -0 68 -26 -4 19 45 28
159 147 145 119 140 159 128 105 93 119 111 111 96 72 113 104 25 90 170 154 101 124 29 60 47 21 91 -27 -43 -30 -62 -31 -4 38 37 -13 -6 -10 -13 11 -22 21 -18 56 49 26 17
256 129 130 149 120 129 163 155 103 101 133 136 120 92 131 86 52 122 127 153 161 82 105 75 59 67 56 5 -108 -33 3 -22 6 64 15 24 10 38 59 57 7 9 39 54 63 59 2
19 170 130 140 147 122 136 166 135 92 146 147 145 112 109 53 101 150 171 202 87 30 56 95 79 84 53 13 -56 -33 23 15 -7 91 42 35 35 59 93 7 41 -11 31 60 42 26 31
6 79 82 152 138 177 155 151 170 123 135 175 193 194 154 -7 95 163 234 127 49 100 22 92 111 103 8 -28 12 -36 13 43 32 82 54 52 50 52 25 48 40 44 9 33 81 74 64
52 -56 131 141 182 165 193 163 158 153 153 227 276 263 178 36 146 197 233 127 161 33 126 137 118 75 69 -5 16 -1 -5 18 -0 44 108 40 74 58 32 36 7 63 20 46 89 24 15
101 -82 123 205 129 123 142 256 125 197 166 245 336 301 178 100 241 275 159 191 174 -19 73 167 161 103 54 45 8 -10 -9 -25 59 38 146 129 100 66 108 54 -3 65 32 56 58 67 24
149 -214 55 151 185 78 99 231 221 167 173 266 408 317 211 243 350 229 156 210 174 -77 50 112 141 113 73 54 51 -3 15 18 79 119 41 108 126 122 42 34 1 20 11 16 77 53 69
161 -117 -28 110 176 130 45 157 238 153 171 397 441 394 200 284 275 150 189 108 138 15 -26 42 152 139 96 32 66 33 -9 31 54 94 111 100 123 117 113 68 30 12 -16 48 117 121 82
134 -4 -130 140 167 131 68 73 176 97 115 404 539 473 367 258 255 171 188 130 138 -25 20 109 151 146 165 106 86 41 85 21 98 137 145 199 138 86 79 41 65 62 37 46 82 105 107
120 1 42 90 176 128 89 69 70 56 85 314 637 391 571 336 155 174 143 86 107 2 -4 26 73 107 163 177 81 116 106 92 139 189 243 182 153 129 97 107 90 106 151 127 88 64 84
22 60 188 174 162 133 66 59 62 80 84 286 618 464 446 352 288 203 174 67 32 15 71 46 124 140 172 159 73 92 138 108 129 165 135 161 124 125 111 140 95 75 106 124 102 72 66
150 279 301 159 110 93 -5 18 90 62 102 336 380 456 345 340 172 224 84 163 142 36 16 101 123 117 143 197 122 93 29 86 117 132 146 168 162 166 114 168 144 116 79 92 100 79 76
204 126 117 58 36 104 80 -33 67 64 88 361 308 478 397 216 287 106 113 220 175 48 48 56 39 111 120 141 107 181 215 245 261 200 185 170 196 164 111 164 138 100 89 120 201 212 187
164 119 81 37 21 72 -22 41 103 52 165 212 135 408 476 205 155 171 115 130 182 60 49 73 91 46 43 163 187 257 278 270 262 271 235 159 178 160 151 148 137 104 111 128 136 175 174
116 94 49 55 -42 -44 40 104 105 -14 124 137 78 162 381 189 110 164 125 95 149 102 77 21 -9 45 152 190 225 248 235 207 211 237 264 256 192 150 147 157 121 47 94 163 173 168 144
31 16 1 -29 19 37 69 90 74 -14 127 84 21 77 75 360 291 163 139 128 84 132 107 83 60 87 114 257 232 216 220 156 180 178 177 236 235 183 213 168 135 75 85 126 175 114 166
8 23 32 45 45 31 42 68 77 57 117 150 -41 15 172 300 296 145 204 169 106 135 146 136 211 222 262 275 222 235 276 221 219 171 181 208 238 223 244 228 130 113 196 160 145 207 186
24 22 27 40 48 30 33 51 47 113 162 200 -114 -170 36 124 287 159 239 220 168 105 208 149 159 201 183 255 208 230 258 301 283 201 212 225 177 155 124 95 129 128 137 177 210 226 186

GFSGBSN_con_3kmhel_051.txt.gz
Helicity
61 54 66 63 71 87 90 99 112 98 93 92 88 78 73 68 66 62 64 59 50 45 31 26 24 23 29 58 46 17 37 60 66 50 15 21 15 22 69 101 78 72 97 46 26 20 32
68 59 54 57 49 52 57 62 93 111 95 96 88 82 83 74 71 71 72 64 51 45 33 27 30 21 42 66 39 22 35 48 14 14 -1 0 15 11 68 103 93 57 44 5 38 1 17
72 64 59 53 54 46 48 55 64 88 100 81 77 79 79 74 72 73 78 61 50 43 35 26 36 26 61 93 56 8 -35 -24 4 15 -20 -5 1 58 49 115 62 29 27 46 22 5 24
83 76 63 53 59 52 43 45 56 56 75 72 57 69 72 69 67 72 74 72 58 41 35 29 47 37 51 32 15 -120 -49 -81 -14 25 35 1 18 30 18 59 83 49 22 48 -17 32 30
93 101 87 67 61 55 51 48 51 48 43 49 47 53 66 65 65 67 71 71 64 41 40 48 56 53 33 13 -10 -47 11 -30 -3 2 0 -19 -4 17 58 71 66 63 37 25 2 20 22
97 94 104 97 80 67 57 55 55 55 45 34 38 25 50 43 56 66 73 72 58 57 57 61 80 58 30 89 39 -36 -93 -19 -10 13 -6 -5 18 31 68 73 77 81 96 52 39 27 21
115 110 96 102 101 90 72 60 59 58 58 47 29 20 25 21 40 58 60 60 87 83 90 74 58 53 53 51 7 -10 -61 0 -6 22 18 6 14 22 74 41 74 86 127 43 77 6 -32
103 101 109 109 101 96 94 78 66 67 62 59 49 36 19 22 31 45 48 85 85 85 44 30 40 30 -15 37 9 21 -29 26 22 2 -1 22 18 5 -5 34 73 57 62 59 6 35 -27
201 111 97 116 116 102 97 83 80 78 71 63 57 51 39 25 45 34 73 74 65 60 44 10 69 57 30 75 -4 -14 -5 16 26 54 15 7 -4 -13 18 2 -4 18 -4 32 78 41 8
160 229 118 112 115 127 106 88 86 85 81 71 65 62 51 68 48 38 86 74 101 48 61 50 51 39 112 107 1 -35 -28 -19 3 27 55 23 25 2 13 -17 7 23 -6 22 57 49 17
25 128 224 136 120 125 132 123 78 90 94 97 77 77 57 87 83 76 104 136 57 69 67 45 75 83 86 118 38 -14 -32 -34 -3 30 51 25 30 -1 3 25 -8 37 30 6 28 55 33
47 -15 149 279 137 125 128 154 131 95 106 121 106 97 74 88 43 69 135 148 86 150 72 97 52 56 113 70 47 47 21 -5 -22 53 27 -1 12 -1 39 8 5 -3 4 22 53 30 -4
90 44 -23 152 228 146 140 135 159 136 113 133 135 123 102 88 53 66 75 127 180 140 145 107 66 64 70 75 -26 63 54 15 29 47 18 57 31 30 36 39 36 -12 35 43 37 24 -38
141 96 59 -10 172 161 148 139 164 161 139 136 154 152 106 89 75 127 133 175 162 75 124 106 85 123 65 92 -8 48 53 10 -43 26 43 24 41 50 67 45 28 5 23 46 30 35 21
141 133 76 34 56 215 137 153 133 170 166 153 201 199 155 59 90 140 220 179 128 150 70 163 99 115 55 62 78 86 46 8 -14 28 18 24 13 51 30 52 38 41 53 32 84 81 46
144 122 108 85 -38 146 114 146 138 162 170 155 283 238 129 67 138 211 217 140 175 153 147 184 142 108 90 48 112 144 99 9 -45 31 78 41 -17 46 56 34 38 63 58 90 88 68 38
181 137 120 84 23 87 146 110 130 150 173 141 331 330 155 152 232 294 147 181 153 74 102 189 215 138 48 84 78 153 134 46 3 39 82 114 111 46 56 39 61 126 132 115 83 74 53
214 165 133 103 87 -90 206 139 103 126 191 192 366 360 195 284 314 268 146 233 193 -2 57 123 161 151 67 59 64 44 52 18 -24 70 68 69 115 -9 62 63 29 84 95 122 114 71 85
279 183 149 132 118 -128 110 169 121 88 131 386 394 416 164 269 317 195 216 168 183 55 13 22 133 151 142 84 72 45 34 -31 11 106 101 83 140 82 98 96 101 83 57 84 117 101 96
349 224 173 142 146 28 87 220 166 135 53 351 522 535 365 293 276 189 194 149 122 60 97 151 109 129 129 114 70 28 55 63 33 24 60 240 175 139 101 59 74 96 31 66 115 122 116
338 317 176 150 137 -97 85 218 102 152 67 322 519 495 534 417 170 247 146 136 131 93 39 107 75 73 163 155 142 105 114 134 112 28 93 162 133 144 90 72 92 85 77 73 144 118 141
407 360 182 145 104 -24 105 140 82 131 167 309 486 527 454 384 293 236 204 121 54 88 126 63 72 82 76 130 147 178 83 123 126 145 137 176 132 196 199 192 140 106 89 117 132 151 127
400 290 170 146 117 25 104 118 108 122 162 265 391 418 444 350 172 289 134 207 137 93 66 105 69 48 112 122 122 173 170 95 87 148 179 182 195 197 145 179 178 141 106 126 133 158 160
496 243 138 133 90 81 103 40 117 130 125 249 389 339 381 298 244 146 140 212 156 127 114 44 85 108 43 -14 -6 81 214 178 177 211 202 210 223 199 123 172 107 78 165 141 178 187 179
289 137 114 91 123 40 53 -10 88 58 97 146 250 279 342 220 184 166 166 74 171 99 59 59 98 112 42 18 116 168 249 272 250 247 236 192 225 203 165 118 136 115 129 182 193 166 158
118 112 66 80 181 125 -32 34 47 62 78 116 224 154 268 275 133 195 86 109 98 116 73 61 75 20 104 108 165 155 175 222 273 327 289 292 299 203 199 162 90 56 139 132 163 185 136
207 96 142 176 160 97 67 9 59 79 78 103 64 125 101 292 289 151 171 114 118 59 107 118 122 115 93 180 160 196 246 202 248 272 305 338 307 213 251 176 140 117 114 160 225 114 233
122 152 136 80 46 51 42 16 84 87 88 209 172 208 88 168 256 232 267 174 157 109 127 84 132 174 163 205 149 174 189 218 255 225 253 267 288 226 257 238 165 181 253 219 140 218 207
86 86 80 76 77 69 77 27 59 27 8 128 258 195 115 91 194 206 241 200 81 102 125 139 151 111 152 168 170 159 210 247 283 282 303 237 190 212 190 172 228 160 129 182 168 182 142